TimeEDT,TemperatureF,Dew PointF,Humidity,Sea Level PressureIn,VisibilityMPH,Wind Direction,Wind SpeedMPH,Gust SpeedMPH,PrecipitationIn,Events,Conditions,WindDirDegrees,DateUTC
12:15 AM,59.0,51.8,77,30.15,10.0,South,3.5,-,N/A,,Clear,190,2012-10-04 04:15:00
12:35 AM,59.0,51.8,77,30.15,10.0,Calm,Calm,-,N/A,,Clear,0,2012-10-04 04:35:00
12:55 AM,57.2,51.8,82,30.15,10.0,SSW,3.5,-,N/A,,Clear,210,2012-10-04 04:55:00
1:15 AM,55.4,51.8,88,30.15,10.0,Calm,Calm,-,N/A,,Clear,0,2012-10-04 05:15:00
1:35 AM,55.4,50.0,82,30.16,10.0,SSW,3.5,-,N/A,,Clear,210,2012-10-04 05:35:00
1:55 AM,55.4,50.0,82,30.16,10.0,Calm,Calm,-,N/A,,Clear,0,2012-10-04 05:55:00
2:15 AM,55.4,50.0,82,30.16,10.0,SSW,3.5,-,N/A,,Clear,210,2012-10-04 06:15:00
2:35 AM,55.4,50.0,82,30.16,10.0,SSW,3.5,-,N/A,,Clear,210,2012-10-04 06:35:00
2:55 AM,55.4,50.0,82,30.16,10.0,SSW,4.6,-,N/A,,Clear,210,2012-10-04 06:55:00
3:15 AM,53.6,50.0,88,30.16,10.0,SSW,3.5,-,N/A,,Clear,200,2012-10-04 07:15:00
3:35 AM,53.6,50.0,88,30.16,10.0,Calm,Calm,-,N/A,,Clear,0,2012-10-04 07:35:00
3:56 AM,53.6,50.0,88,30.16,10.0,Calm,Calm,-,N/A,,Clear,0,2012-10-04 07:56:00
4:15 AM,51.8,50.0,94,30.15,10.0,Calm,Calm,-,N/A,,Clear,0,2012-10-04 08:15:00
4:35 AM,50.0,46.4,87,30.16,10.0,Calm,Calm,-,N/A,,Clear,0,2012-10-04 08:35:00
4:56 AM,50.0,46.4,87,30.16,10.0,Calm,Calm,-,N/A,,Clear,0,2012-10-04 08:56:00
5:15 AM,48.2,46.4,93,30.16,10.0,Calm,Calm,-,N/A,,Clear,0,2012-10-04 09:15:00
5:35 AM,50.0,46.4,87,30.16,10.0,Calm,Calm,-,N/A,,Clear,0,2012-10-04 09:35:00
5:55 AM,48.2,46.4,93,30.16,7.0,Calm,Calm,-,N/A,,Clear,0,2012-10-04 09:55:00
6:15 AM,50.0,46.4,87,30.17,7.0,Calm,Calm,-,N/A,,Clear,0,2012-10-04 10:15:00
6:35 AM,50.0,46.4,87,30.18,7.0,Calm,Calm,-,N/A,,Clear,0,2012-10-04 10:35:00
6:55 AM,50.0,46.4,87,30.18,7.0,Calm,Calm,-,N/A,,Clear,0,2012-10-04 10:55:00
7:15 AM,50.0,48.2,94,30.18,10.0,Calm,Calm,-,N/A,,Clear,0,2012-10-04 11:15:00
7:35 AM,50.0,46.4,87,30.19,7.0,Calm,Calm,-,N/A,,Clear,0,2012-10-04 11:35:00
7:55 AM,50.0,48.2,94,30.19,7.0,South,3.5,-,N/A,,Clear,170,2012-10-04 11:55:00
8:15 AM,51.8,50.0,94,30.19,7.0,South,3.5,-,N/A,,Clear,170,2012-10-04 12:15:00
8:40 AM,53.6,50.0,88,30.19,10.0,South,3.5,-,N/A,,Clear,180,2012-10-04 12:40:00
8:55 AM,53.6,51.8,94,30.19,10.0,Calm,Calm,-,N/A,,Clear,0,2012-10-04 12:55:00
9:15 AM,55.4,51.8,88,30.19,10.0,South,5.8,-,N/A,,Scattered Clouds,190,2012-10-04 13:15:00
9:35 AM,59.0,51.8,77,30.20,10.0,SSW,8.1,-,N/A,,Mostly Cloudy,210,2012-10-04 13:35:00
9:55 AM,60.8,51.8,72,30.19,10.0,SW,6.9,-,N/A,,Mostly Cloudy,220,2012-10-04 13:55:00
10:15 AM,60.8,51.8,72,30.20,10.0,SW,5.8,-,N/A,,Overcast,220,2012-10-04 14:15:00
10:35 AM,60.8,51.8,72,30.20,10.0,SSW,3.5,-,N/A,,Overcast,210,2012-10-04 14:35:00
10:55 AM,64.4,53.6,68,30.20,10.0,SSW,5.8,-,N/A,,Scattered Clouds,210,2012-10-04 14:55:00
11:15 AM,66.2,53.6,64,30.20,10.0,SW,8.1,-,N/A,,Clear,220,2012-10-04 15:15:00
11:35 AM,68.0,51.8,56,30.20,10.0,WSW,9.2,17.3,N/A,,Clear,240,2012-10-04 15:35:00
11:55 AM,69.8,51.8,53,30.19,10.0,SW,16.1,20.7,N/A,,Scattered Clouds,230,2012-10-04 15:55:00
12:15 PM,71.6,53.6,53,30.19,10.0,SW,10.4,18.4,N/A,,Scattered Clouds,230,2012-10-04 16:15:00
12:35 PM,71.6,51.8,50,30.19,10.0,SW,10.4,16.1,N/A,,Scattered Clouds,230,2012-10-04 16:35:00
12:55 PM,73.4,51.8,47,30.18,10.0,SW,11.5,19.6,N/A,,Scattered Clouds,220,2012-10-04 16:55:00
1:15 PM,71.6,51.8,50,30.18,10.0,WSW,10.4,17.3,N/A,,Mostly Cloudy,240,2012-10-04 17:15:00
1:35 PM,73.4,53.6,50,30.17,10.0,WSW,13.8,20.7,N/A,,Overcast,250,2012-10-04 17:35:00
1:55 PM,71.6,51.8,50,30.17,10.0,WSW,13.8,20.7,N/A,,Overcast,250,2012-10-04 17:55:00
2:35 PM,73.4,50.0,44,30.15,10.0,West,13.8,18.4,N/A,,Scattered Clouds,270,2012-10-04 18:35:00
2:55 PM,75.2,50.0,41,30.14,10.0,WSW,12.7,17.3,N/A,,Scattered Clouds,250,2012-10-04 18:55:00
3:15 PM,75.2,50.0,41,30.14,10.0,West,9.2,17.3,N/A,,Mostly Cloudy,270,2012-10-04 19:15:00
3:35 PM,75.2,50.0,41,30.14,10.0,WSW,9.2,20.7,N/A,,Mostly Cloudy,250,2012-10-04 19:35:00
3:55 PM,73.4,50.0,44,30.14,10.0,West,6.9,17.3,N/A,,Scattered Clouds,260,2012-10-04 19:55:00
4:15 PM,75.2,50.0,41,30.13,10.0,SW,11.5,20.7,N/A,,Scattered Clouds,230,2012-10-04 20:15:00
4:35 PM,75.2,50.0,41,30.13,10.0,WSW,8.1,16.1,N/A,,Clear,250,2012-10-04 20:35:00
4:55 PM,75.2,51.8,44,30.12,10.0,WSW,10.4,19.6,N/A,,Scattered Clouds,240,2012-10-04 20:55:00
5:15 PM,73.4,50.0,44,30.13,10.0,WSW,10.4,18.4,N/A,,Clear,250,2012-10-04 21:15:00
5:35 PM,73.4,50.0,44,30.13,10.0,WSW,10.4,-,N/A,,Clear,240,2012-10-04 21:35:00
5:55 PM,73.4,50.0,44,30.13,10.0,SW,11.5,-,N/A,,Scattered Clouds,230,2012-10-04 21:55:00
6:15 PM,71.6,50.0,46,30.13,10.0,SW,5.8,-,N/A,,Scattered Clouds,220,2012-10-04 22:15:00
6:55 PM,69.8,50.0,49,30.13,10.0,SW,3.5,-,N/A,,Scattered Clouds,220,2012-10-04 22:55:00
7:15 PM,69.8,50.0,49,30.13,10.0,SW,4.6,-,N/A,,Clear,220,2012-10-04 23:15:00
7:35 PM,66.2,50.0,56,30.13,10.0,SSW,3.5,-,N/A,,Clear,210,2012-10-04 23:35:00
7:55 PM,64.4,51.8,64,30.13,10.0,SSW,4.6,-,N/A,,Clear,200,2012-10-04 23:55:00
8:15 PM,64.4,51.8,64,30.13,10.0,SSW,4.6,-,N/A,,Clear,200,2012-10-05 00:15:00
8:35 PM,64.4,51.8,64,30.14,10.0,SSW,4.6,-,N/A,,Scattered Clouds,200,2012-10-05 00:35:00
8:55 PM,64.4,51.8,64,30.13,10.0,SSW,4.6,-,N/A,,Scattered Clouds,200,2012-10-05 00:55:00
9:15 PM,64.4,51.8,64,30.13,10.0,SSW,4.6,-,N/A,,Clear,210,2012-10-05 01:15:00
9:35 PM,62.6,51.8,68,30.13,10.0,SW,5.8,-,N/A,,Clear,220,2012-10-05 01:35:00
9:55 PM,62.6,51.8,68,30.13,10.0,SSW,6.9,-,N/A,,Clear,210,2012-10-05 01:55:00
10:15 PM,62.6,51.8,68,30.13,10.0,SSW,4.6,-,N/A,,Clear,210,2012-10-05 02:15:00
10:35 PM,60.8,51.8,72,30.13,10.0,SSW,4.6,-,N/A,,Clear,210,2012-10-05 02:35:00
10:55 PM,60.8,51.8,72,30.13,10.0,SSW,4.6,-,N/A,,Clear,210,2012-10-05 02:55:00
11:16 PM,60.8,51.8,72,30.13,10.0,SSW,4.6,-,N/A,,Clear,210,2012-10-05 03:16:00
11:35 PM,60.8,51.8,72,30.13,10.0,SSW,5.8,-,N/A,,Clear,210,2012-10-05 03:35:00
11:55 PM,60.8,51.8,72,30.13,10.0,SW,5.8,-,N/A,,Clear,220,2012-10-05 03:55:00